Flag for Slovakia Weather past 2 weeks in Bratislava, Slovakia

Now
64 °F

Passing clouds.


Feels Like: 64 °F
Forecast: 54 / 75 °F
Wind: 7 mph from Northwest

Location: Bratislava Ivanka

Current Time: Jul 30, 2015 at 10:41:52 AM

Latest Report: Jul 30, 2015 at 10:00 AM


Visibility: N/A

Pressure: 29.98 "Hg

Humidity: 64%

Dew point: 52 °F

Location of BratislavaLocation

Historic Weather in Bratislava — Graph

°F

Bratislava temperature yesterday

Maximum temperature yesterday: 70 °F (at 5:00 PM)
Minimum temperature yesterday: 59 °F (at 8:30 AM)
Average temperature yesterday: 64 °F

Past Weeks' High & Low Weather Summary

 TemperatureHumidityPressure
High97 °F (Jul 17, 5:00 PM)94% (Jul 27, 3:00 AM)30.12 "Hg (Jul 27, 3:00 AM)
Low57 °F (Jul 27, 2:00 AM)23% (Jul 17, 6:00 PM)29.71 "Hg (Jul 25, 2:00 PM)
Average77 °F55%29.92 "Hg
* Reported Jul 15 9:00 AM — Jul 30 9:30 AM, Bratislava, Weather by CustomWeather, © 2015

Note: Actual official high and low records may vary slightly from our data, if they occured in-between our weather recording intervals... More about our weather records

Advertising

Bratislava weather history for previous 24 hours

 ConditionsComfort  
Time TempWeatherWind HumidityBarometerVisibility
9:30 AM
Thu, Jul 30
63 °FPassing clouds.8 mph68%29.98 "HgN/A
9:00 AM63 °FPassing clouds.8 mph73%29.98 "HgN/A
8:30 AM61 °FPassing clouds.7 mph77%29.98 "HgN/A
8:00 AM61 °FPassing clouds.3 mph77%29.98 "HgN/A
7:30 AM59 °FPassing clouds.2 mph82%29.98 "HgN/A
7:00 AM59 °FPassing clouds.6 mph82%29.95 "HgN/A
6:30 AM59 °FPassing clouds.8 mph82%29.95 "HgN/A
5:30 AM59 °FLight rain. Passing clouds.13 mph82%29.95 "HgN/A
5:00 AM61 °FLight rain. Passing clouds.12 mph77%29.92 "HgN/A
4:30 AM63 °FPassing clouds.12 mph77%29.92 "HgN/A
4:00 AM63 °FPassing clouds.13 mph83%29.92 "HgN/A
3:30 AM63 °FLight rain. Low clouds.9 mph88%29.92 "HgN/A
3:00 AM63 °FLight rain. Mostly cloudy.10 mph94%29.89 "HgN/A
2:30 AM63 °FLight rain. Mostly cloudy.9 mph94%29.89 "HgN/A
2:00 AM63 °FLight rain. Mostly cloudy.3 mph94%29.89 "HgN/A
1:30 AM63 °FRain. Mostly cloudy.5 mph94%29.89 "HgN/A
1:00 AM63 °FRain. Mostly cloudy.5 mph94%29.89 "HgN/A
12:30 AM63 °FRain. Mostly cloudy.6 mph94%29.89 "HgN/A
12:00 AM63 °FLight rain. Mostly cloudy.2 mph94%29.89 "HgN/A
11:30 PM
Wed, Jul 29
63 °FLight rain. Mostly cloudy.5 mph88%29.89 "HgN/A
11:00 PM63 °FLight rain. Low clouds.2 mph88%29.86 "HgN/A
10:30 PM63 °FLight rain. Passing clouds.7 mph88%29.86 "HgN/A
10:00 PM64 °FLight rain. Partly cloudy.6 mph83%29.89 "HgN/A
9:30 PM64 °FLight rain. Broken clouds.3 mph83%29.86 "HgN/A
9:00 PM64 °FLight rain. Partly sunny.3 mph78%29.86 "HgN/A
8:30 PM66 °FPartly sunny.5 mph73%29.86 "HgN/A
8:00 PM66 °FPartly sunny.5 mph73%29.86 "HgN/A
7:30 PM66 °FScattered clouds.7 mph68%29.83 "HgN/A
7:00 PM68 °FPartly sunny.6 mph64%29.86 "HgN/A
6:30 PM68 °FPassing clouds.6 mph64%29.86 "HgN/A
6:00 PM68 °FPassing clouds.6 mph64%29.86 "HgN/A
5:30 PM68 °FPassing clouds.9 mph64%29.83 "HgN/A
5:00 PM70 °FPassing clouds.8 mph57%29.86 "HgN/A
4:30 PM68 °FScattered clouds.6 mph69%29.86 "HgN/A
4:00 PM66 °FScattered clouds.7 mph68%29.86 "HgN/A
3:30 PM66 °FLight rain. Broken clouds.7 mph73%29.86 "HgN/A
3:00 PM64 °FPassing clouds.6 mph73%29.89 "HgN/A
2:30 PM64 °FLight rain. Scattered clouds.5 mph73%29.86 "HgN/A
2:00 PM64 °FLight rain. Scattered clouds.6 mph68%29.89 "HgN/A
1:30 PM64 °FLight rain. Scattered clouds.5 mph68%29.89 "HgN/A
1:00 PM64 °FScattered clouds.3 mph68%29.89 "HgN/A
12:30 PM64 °FLight rain. Scattered clouds.3 mph73%29.89 "HgN/A
12:00 PM63 °FPassing clouds.3 mph77%29.92 "HgN/A
11:30 AM63 °FScattered clouds.6 mph77%29.92 "HgN/A
11:00 AM61 °FLight rain. Broken clouds.3 mph83%29.92 "HgN/A
10:30 AM61 °FLight rain. Partly sunny.7 mph83%29.92 "HgN/A
10:00 AM61 °FLight rain. Low clouds.3 mph83%29.92 "HgN/A
Weather by CustomWeather, © 2015

See weather overviewHow to use our weather pages